This is the latest recevied weather packets stored in our database for station/object KASG. If no packets are shown the sender has not sent any weather packets the latest 1 day(s).
| Time | Temp. | Humidity | Pressure | Rain* | Wind** | Luminosity | Snow |
|---|---|---|---|---|---|---|---|
| 1778110407 | 15° C | 67% | 1015.9 hPa | - | - | - | - |
| 1778109206 | 15° C | 67% | 1015.9 hPa | - | - | - | - |
| 1778108008 | 15° C | 67% | 1015.9 hPa | - | - | - | - |
| 1778107406 | 15° C | 72% | 1015.6 hPa | - | - | - | - |
| 1778105607 | 15° C | 72% | 1015.6 hPa | - | - | - | - |
| 1778103207 | 13.89° C | 71% | 1015.9 hPa | - | - | - | - |
| 1778100805 | 13.89° C | 71% | 1015.9 hPa | - | - | - | - |
| 1778099606 | 13.89° C | 71% | 1016.9 hPa | - | - | - | - |
| 1778096005 | 13.89° C | 71% | 1016.9 hPa | - | - | - | - |
| 1778095405 | 11.67° C | 76% | 1017.9 hPa | - | - | - | - |
| 1778094806 | 11.67° C | 76% | 1017.9 hPa | - | - | - | - |
| 1778093008 | 11.67° C | 76% | 1017.9 hPa | - | - | - | - |
| 1778092410 | 11.67° C | 76% | 1017.9 hPa | - | - | - | - |
| 1778091809 | 11.67° C | 76% | 1017.9 hPa | - | - | - | - |
| 1778091208 | 11.67° C | 76% | 1017.9 hPa | - | - | - | - |
| 1778088210 | 11.67° C | 81% | 1018.3 hPa | - | - | - | - |
| 1778086411 | 10.56° C | 87% | 1017.6 hPa | - | - | - | - |
| 1778085807 | 10.56° C | 87% | 1017.6 hPa | - | - | - | - |
| 1778083531 | 10° C | 99% | 1017.3 hPa | - | - | - | - |
| 1778082813 | 10° C | 99% | 1017.3 hPa | - | - | - | - |
| 1778079206 | 10° C | 99% | 1017.3 hPa | - | - | - | - |
| 1778076205 | 8.89° C | 100% | 1017.3 hPa | - | - | - | - |
| 1778074402 | 7.78° C | 100% | 1016.9 hPa | - | - | - | - |
| 1778073804 | 7.78° C | 100% | 1016.9 hPa | - | - | - | - |
| 1778073207 | 7.78° C | 100% | 1016.9 hPa | - | - | - | - |
* Rain since midnight (hover to see other rain measurements)
** Current wind speed in m/s (hover to see current wind gust speed)